Regional Weather Roundup
Issued by NWS Albany, NY

Home | Current Version | Previous Version | Text Only | Print | Product List | Glossary On
Versions: 1 2 3 4 5 6 7 8 9 10 11 12 13 14 15 16 17 18 19 20 21 22 23 24 25 26 27 28 29 30 31 32 33 34 35 36 37 38 39 40 41 42 43 44 45 46 47 48 49 50
000
ASUS41 KALY 240110
RWRALY

NEW YORK STATE HOURLY WEATHER ROUNDUP
NATIONAL WEATHER SERVICE ALBANY NY
900 PM EDT WED AUG 23 2017

NOTE: "FAIR" INDICATES FEW OR NO CLOUDS BELOW 12,000 FEET WITH NO
SIGNIFICANT WEATHER AND/OR NO OBSTRUCTIONS TO VISIBILITY.

NYZ032-033-038>043-046>054-057>066-NYZ062>081-082-084-240200-
EAST


CITY           SKY/WX    TMP DP  RH WIND       PRES   REMARKS
ALBANY         PTCLDY    65  54  67 CALM      29.86R
GLENS FALLS    CLEAR     59  54  83 NW3       29.85R
POUGHKEEPSIE   CLEAR     63  57  81 CALM      29.86R
NEWBURGH       CLEAR     68  59  73 VRB5      29.89R
MONTGOMERY     CLEAR     63  58  83 CALM      29.88R
WHITE PLAINS   CLEAR     67  57  70 CALM      29.87R
ISLIP          PTCLDY    71  59  65 NW3       29.86R
NEW YORK CITY  PTCLDY    77  55  46 NW8       29.86R
CENTRAL PARK   PTCLDY    76  51  41 CALM      29.90R
$$

NYZ005>009-017-018-044>046-055-056-240200-
CENTRAL


CITY           SKY/WX    TMP DP  RH WIND       PRES   REMARKS
FULTON         CLOUDY    64  58  80 W6        29.88R
SYRACUSE       DRIZZLE   61  58  90 SW6       29.88R
ROME           CLOUDY    65  56  72 CALM      29.87R
ELMIRA         CLEAR     63  55  75 W5        29.90R
BINGHAMTON     PTCLDY    65  51  60 W3        29.90S
MONTICELLO     CLEAR     61  54  77 CALM      29.92R
$$

NYZ026>034-041>043-087-240200-
NORTH


CITY           SKY/WX    TMP DP  RH WIND       PRES   REMARKS
WATERTOWN      MOCLDY    66  57  72 W9        29.85R
FORT DRUM      NOT AVBL
OGDENSBURG     FAIR      60  58  94 SW3       29.82S
MASSENA        CLOUDY    60  57  89 SW7       29.83R
SARANAC LAKE   RAIN      56  54  93 W5        29.87R FOG
PLATTSBURGH    PTCLDY    64  54  69 CALM      29.81R
$$

NYZ001>004-010>016-019>021-085-240200-
WEST


CITY           SKY/WX    TMP DP  RH WIND       PRES   REMARKS
NIAGARA FALLS  CLEAR     66  51  58 NW10      29.92R
BUFFALO        PTCLDY    64  52  64 NW7       29.92R
DUNKIRK        CLOUDY    68  53  58 NW10      29.93R
JAMESTOWN      MOCLDY    61  54  77 W6        29.97R
WELLSVILLE     PTCLDY    59  49  69 W9        29.97R
ROCHESTER      PTCLDY    62  59  90 W5        29.90R
PENN YAN       CLOUDY    65  53  65 W3        29.91S
$$

             KEY
       WCI = WIND CHILL INDEX
       VSB = VISIBILITY
       HX  = HEAT INDEX
$$



USA.gov is the U.S. government's official web portal to all federal, state and local government web resources and services.